Regional Weather Roundup
Issued by NWS Mt. Holly, NJ

Home | Current Version | Previous Version | Text Only | Print | Product List | Glossary On
Versions: 1 2 3 4 5 6 7 8 9 10 11 12 13 14 15 16 17 18 19 20 21 22 23 24 25 26 27 28 29 30 31 32 33 34 35 36 37 38 39 40 41 42 43 44 45 46 47 48 49 50
000
ASUS41 KPHI 202012
RWRPHI

REGIONAL WEATHER ROUNDUP
NATIONAL WEATHER SERVICE MOUNT HOLLY NJ
300 PM EST FRI JAN 20 2017

NOTE:  "FAIR" INDICATES FEW OR NO CLOUDS BELOW 12,000 FEET WITH NO
SIGNIFICANT WEATHER AND/OR OBSTRUCTIONS TO VISIBILITY.

 * = STATION DOES NOT REPORT PRECIPITATION (E.G. RAIN, SNOW, ETC.)
        OR FOG.

NJZ015>026-202100-
SOUTHERN NEW JERSEY

CITY           SKY/WX    TMP DP  RH WIND       PRES   REMARKS
POMONA         LGT RAIN  43  39  86 SE3       29.94R FOG
WILDWOOD*      LGT RAIN  43  42  97 E6        29.94S
MILLVILLE      LGT RAIN  42  41  96 E5        29.93S
WRIGHTSTOWN    LGT RAIN  42  39  90 CALM      29.92R
MOUNT HOLLY    RAIN      40  38  93 CALM      29.94R FOG
TRENTON        LGT RAIN  41  39  93 CALM      29.94R FOG

$$
NJZ001>014-202100-
NORTHERN NEW JERSEY

CITY           SKY/WX    TMP DP  RH WIND       PRES   REMARKS
SUSSEX         CLOUDY    42  34  73 S5        29.90F
ANDOVER*         N/A     40  36  86 S3        29.91S
MORRISTOWN     CLOUDY    43  37  81 S6        29.93S
NEWARK         LGT RAIN  44  35  70 S6        29.93F
TETERBORO      CLOUDY    45  35  68 S6        29.92S
CALDWELL       CLOUDY    44  34  67 S5        29.93S
SOMERVILLE     LGT RAIN  42  38  85 CALM      29.92R FOG
ALLAIRE*       LGT RAIN  42  39  89 E5        29.94F
TOMS RIVER*    LGT RAIN  42  40  92 CALM      29.95S

$$
PAZ043-044-047-054-055-060>062-066>071-202100-
EASTERN PENNSYLVANIA

CITY           SKY/WX    TMP DP  RH WIND       PRES   REMARKS
PHILADELPHIA   LGT RAIN  41  38  89 E5        29.94F
NORTH PHILA    LGT RAIN  41  38  89 E3        29.95S FOG
BLUE BELL*     CLOUDY    37  37 100 CALM      29.92F
DOYLESTOWN     LGT RAIN  40  38  93 CALM      29.91F FOG
QUAKERTOWN*    CLOUDY    37  37 100 CALM      29.92F
PERKASIE*      LGT RAIN  37  37 100 CALM      29.93S
POTTSTOWN      LGT RAIN  37  37 100 VRB3      29.93S FOG
LANCASTER      CLOUDY    40  40 100 SE8       29.88F FOG     WCI  34
COATESVILLE    MIX PCPN  37  37 100 SE5       29.90F VSB 1   WCI  34
READING        LGT RAIN  39  39 100 CALM      29.89F FOG
ALLENTOWN      LGT RAIN  40  36  86 E5        29.91F FOG
MOUNT POCONO   LGT RAIN  33  31  92 S8        29.84F FOG     WCI  26
HAZLETON       LGT RAIN  34  34 100 SE8       29.86F WCI  27
LEHIGHTON      LGT RAIN  36  36 100 CALM      29.91F
WILKES BARRE   RAIN      39  38  96 CALM      29.85F FOG

$$
DEZALL-MDZ008-012-015-019-020-202100-
DELAWARE AND EASTERN MARYLAND

CITY           SKY/WX    TMP DP  RH WIND       PRES   REMARKS
WILMINGTON     LGT RAIN  41  40  96 E6        29.93F FOG
DOVER          LGT RAIN  43  43 100 SE8       29.91R
GEORGETOWN     CLOUDY    46  43  89 SE6       29.93S FOG
EASTON         DRIZZLE   46  43  87 SE7       29.94F
ABERDEEN       LGT RAIN  40  40  99 E5        29.91F FOG
PATUXENT       CLOUDY    44  43  96 SE7       29.89F
OCEAN CITY     LGT RAIN  45  44  97 CALM      29.94S FOG
WALLOPS ISLAND LGT RAIN  46  45  96 E7        29.92F FOG
CAMBRIDGE      CLOUDY    46  43  87 SE6       29.90F
SALISBURY      CLOUDY    48  46  93 SE6       29.91F

$$
PAZ001-021-NYZ056-072-MDZ011-DCZ001-202100-
OTHER NEARBY LOCATIONS

CITY           SKY/WX    TMP DP  RH WIND       PRES   REMARKS
HARRISBURG     CLOUDY    41  40  96 SE7       29.87S FOG
WILLIAMSPORT   LGT RAIN  39  36  89 E12       29.84S WCI  32
BINGHAMTON     LGT RAIN  35  34  96 S8        29.78F FOG     WCI  29
NEW YORK CITY  CLOUDY    45  34  65 S3        29.95S
BALTIMORE      CLOUDY    44  42  93 SE9       29.89S
WASHINGTON DC  CLOUDY    48  45  89 S6        29.87F

$$



USA.gov is the U.S. government's official web portal to all federal, state and local government web resources and services.